El Tor, Egypt

5:26 PM EET on April 20, 2019 (GMT +0200)
El Tor

Weather History for HETR - April, 2019

Change the Weather History Date:

Saturday, April 20, 2019

  Actual Average (WUND) Record (WUND)
Temperature  
Mean Temperature 68 °F -  
Max Temperature 72 °F 86 °F - (-1)
Min Temperature 64 °F 67 °F - (-1)
Cooling Degree Days 3    
Growing Degree Days 18 (Base 50)    
Moisture  
Dew Point 45 °F    
Average Humidity 42    
Maximum Humidity 60    
Minimum Humidity 24    
Precipitation  
Precipitation 0.00 in 0.00 in - ()
Sea Level Pressure  
Sea Level Pressure 29.99 in    
Wind  
Wind Speed 15 mph ()    
Max Wind Speed 34 mph    
Max Gust Speed -    
Visibility 4.9 miles    
Events      
Averages and records for this station are not official NWS values.
T = Trace of Precipitation, MM = Missing Value Source: Averaged Metar Reports

Daily Weather History Graph

Daily Weather History Graph

Search for Another Location

Airport or City:

Astronomy

Apr. 20, 2019 Rise Set
Actual Time 5:15 AM EET 6:13 PM EET
Civil Twilight 4:51 AM EET 6:37 PM EET
Nautical Twilight 4:22 AM EET 7:06 PM EET
Astronomical Twilight 3:53 AM EET 7:36 PM EET
Moon 7:23 PM EET 6:04 AM EET
Length of Visible Light 13h 46m
Length of Day
12h 57m
Full, 99% of the Moon is Illuminated
Today
Full
Apr 27
Last Quarter
May 5
New
May 12
First Quarter
May 18
Full

Hourly Weather History & Observations

Time (EET) Temp. Dew Point Humidity Pressure Visibility Wind Dir Wind Speed Gust Speed Precip Events Conditions
12:00 AM 68.0 °F 39.2 °F 35% 30.01 in - NNW 13.8 mph - N/A   Clear
1:00 AM 68.0 °F 37.4 °F 33% 29.98 in - NNW 10.4 mph - N/A   Clear
2:00 AM 66 °F 39 °F 25% 29.97 in 6 mi NNW 10.4 mph - -  
2:00 AM 66.2 °F 39.2 °F 37% 29.95 in - NNW 10.4 mph - N/A   Clear
3:00 AM 66.2 °F 37.4 °F 35% 29.95 in - NNW 12.7 mph - N/A   Clear
4:00 AM 64.4 °F 37.4 °F 37% 29.95 in - NNW 11.5 mph - N/A   Clear
5:00 AM 65 °F 51 °F 50% 29.99 in 6 mi NW 13.8 mph - -  
5:00 AM 66.2 °F 50.0 °F 56% 29.98 in - NW 15.0 mph - N/A   Clear
6:00 AM 64.4 °F 50.0 °F 59% 29.98 in - NW 13.8 mph - N/A   Clear
7:00 AM 66.2 °F 51.8 °F 60% 30.01 in - NNW 17.3 mph - N/A   Clear
8:00 AM 68 °F 49 °F 41% 30.03 in 6 mi WNW 24.2 mph - -  
8:00 AM 68.0 °F 50.0 °F 52% 30.04 in - WNW 24.2 mph - N/A   Clear
10:00 AM 68.0 °F 51.8 °F 56% 30.01 in - WNW 27.6 mph - N/A   Clear
11:00 AM 69 °F 50 °F 40% 30.04 in 6 mi WNW 29.9 mph - -  
11:00 AM 69.8 °F 50.0 °F 49% 30.04 in - WNW 29.9 mph - N/A   Clear
12:00 PM 71.6 °F 50.0 °F 46% 30.01 in 3.7 mi WNW 34.5 mph - N/A   Unknown
1:00 PM 69.8 °F 46.4 °F 43% 29.98 in 3.7 mi NW 29.9 mph - N/A   Unknown
2:00 PM 72 °F 43 °F 24% 29.97 in 4 mi NW 27.6 mph - -   Blowing Sand
2:00 PM 71.6 °F 42.8 °F 35% 29.98 in 3.7 mi NW 27.6 mph - N/A   Unknown
3:00 PM 71.6 °F 42.8 °F 35% 29.95 in 5.0 mi WNW 23.0 mph - N/A   Unknown